Wind_Speed
13 13 14 14 14 13 14 14 14 14 13 12 12 11 10 10 9 8 7 7 6 5 3 2 2 1 1 0 1 2 2 2 2 2 2 3 3 3 4 5 4 4
12 13 14 14 14 14 14 14 15 14 14 13 12 11 11 10 9 8 7 6 6 4 3 2 1 1 1 1 1 1 1 2 1 1 1 2 2 3 3 4 4 5
12 13 14 14 14 14 14 14 15 15 14 14 13 12 12 11 10 9 8 7 6 5 4 2 1 2 2 3 3 2 1 1 1 1 1 2 2 2 2 3 4 5
13 14 15 15 14 14 14 14 14 14 14 14 14 13 12 12 11 10 9 7 6 5 4 3 2 2 2 3 3 2 1 1 1 1 2 2 2 2 2 3 3 4
13 14 15 15 15 15 15 15 15 14 14 14 14 13 13 12 11 10 9 8 7 6 5 4 3 2 2 2 2 2 1 1 1 1 1 1 2 3 3 4 4 4
14 14 14 15 15 15 15 15 15 15 14 13 13 13 13 12 12 11 11 10 8 7 6 5 4 4 4 3 3 2 2 2 2 2 2 2 2 3 4 5 5 5
17 15 14 15 15 15 15 14 15 15 14 14 14 14 14 13 13 12 11 11 10 9 8 6 5 5 5 5 5 4 4 3 3 3 3 3 3 4 4 5 5 5
20 18 15 15 15 15 15 14 14 15 15 15 15 15 14 14 13 13 12 11 11 10 9 7 6 6 6 7 6 6 5 5 5 5 5 5 5 5 5 5 6 6
22 19 17 15 15 15 15 15 15 14 14 15 15 14 14 14 14 13 13 12 11 10 10 8 7 7 7 7 7 7 7 6 6 6 7 6 6 6 6 6 6 7
22 20 18 17 17 17 16 16 15 14 13 13 13 13 13 13 13 13 13 13 12 11 10 8 7 7 7 7 8 7 7 7 7 8 8 8 8 8 7 7 7 7
21 21 21 21 20 19 18 18 17 15 13 12 12 12 12 12 12 13 13 13 13 11 10 8 7 7 7 7 7 7 8 8 8 8 9 9 9 10 9 9 9 8
22 21 23 24 23 22 21 20 19 18 17 15 14 13 12 11 12 12 13 13 13 11 10 9 9 8 8 7 8 8 8 9 9 9 10 10 10 11 11 11 11 10
25 22 22 23 25 25 24 23 21 20 20 19 18 16 15 13 12 12 13 14 13 13 12 11 11 11 10 10 10 10 10 10 10 10 10 10 11 11 12 12 12 12
25 24 24 24 25 26 26 25 24 23 22 21 19 19 18 17 15 14 13 14 14 15 14 14 13 13 13 13 13 12 12 12 11 11 11 12 12 12 13 13 14 14
26 27 27 26 25 26 25 24 24 24 24 22 21 21 21 21 20 18 16 16 16 16 16 15 14 14 15 14 14 14 14 14 13 13 13 13 13 14 14 15 15 16
29 30 29 27 26 26 26 24 24 26 26 25 24 24 23 22 21 20 19 19 18 17 17 16 16 16 16 16 16 15 15 15 15 15 15 15 15 15 15 16 17 17
30 30 29 28 29 29 28 26 27 28 29 28 27 25 24 22 21 21 20 20 20 19 18 18 18 18 17 17 17 17 17 17 17 17 16 16 16 17 17 17 18 18
28 29 29 30 31 31 29 28 30 31 32 31 29 27 25 23 22 22 22 21 21 21 21 21 20 20 20 19 19 19 19 19 19 19 18 18 18 18 19 19 19 19
28 28 28 28 29 30 29 30 32 34 34 32 31 29 27 25 24 23 23 23 22 22 23 23 23 22 22 22 22 21 21 21 20 20 20 19 19 20 20 21 21 22
29 29 27 26 27 29 31 32 33 34 33 31 31 30 28 26 24 24 24 24 23 23 24 24 24 24 23 23 23 22 22 21 21 21 20 21 21 21 22 22 23 23
25 28 29 30 29 29 31 33 34 33 31 29 30 30 29 28 26 24 24 25 25 25 26 25 25 25 25 25 25 24 23 22 21 21 21 21 22 23 23 24 24 24
18 20 23 27 31 32 32 31 31 31 30 29 29 29 29 30 28 25 25 27 28 27 26 25 25 25 26 27 27 27 25 24 23 23 22 22 23 23 24 24 25 25
21 18 18 20 23 28 31 31 30 29 28 28 28 29 29 29 28 26 25 27 29 28 27 26 25 26 27 28 29 29 28 27 27 26 25 24 24 24 25 25 25 25
25 23 22 21 20 20 23 27 29 28 27 27 27 28 28 27 27 26 27 28 29 30 30 30 30 30 30 29 29 30 30 30 30 29 27 26 26 26 26 26 27 27
28 27 27 26 24 20 19 20 22 22 23 23 24 25 27 27 27 27 27 28 29 31 32 33 33 33 31 30 29 30 30 31 31 30 29 28 28 28 28 28 29 29
32 31 31 30 29 27 26 25 23 21 21 21 22 23 24 26 28 27 27 27 28 29 31 31 31 32 31 31 30 29 30 30 30 29 29 29 30 30 30 31 32 32
Wind_Direction
193 193 189 183 181 181 180 177 174 171 169 167 164 161 157 154 152 152 150 149 147 139 133 119 87 51 13 304 243 230 223 223 204 172 172 186 178 161 163 175 182 184
201 201 198 193 188 186 186 185 182 180 177 176 173 169 166 163 162 162 162 160 159 155 151 142 110 107 125 139 163 200 217 221 199 164 165 175 165 156 165 177 189 194
209 209 208 203 197 193 192 191 190 189 187 184 182 180 177 174 173 172 171 171 171 169 165 164 153 141 134 131 135 144 178 201 189 173 178 181 173 169 173 181 191 200
216 216 214 211 205 200 197 196 196 197 197 194 190 189 187 184 181 179 178 179 181 180 177 179 179 159 141 134 134 136 159 178 169 174 189 195 199 198 198 197 196 204
222 222 221 217 212 207 203 201 201 203 205 204 200 198 197 195 191 187 187 189 190 189 191 191 185 176 164 154 152 155 164 174 175 183 189 191 202 210 211 213 215 217
223 225 226 223 218 214 211 208 207 206 207 210 211 209 207 205 203 199 196 196 197 200 202 200 191 183 175 174 179 182 182 190 194 191 192 193 198 209 212 214 220 223
220 224 227 227 224 220 217 215 214 213 211 212 215 216 215 214 213 211 208 206 205 206 209 207 199 189 180 182 191 194 191 192 197 197 195 195 194 200 207 213 219 222
214 219 223 228 229 227 224 222 221 220 217 216 217 219 220 221 221 220 220 218 216 215 216 214 208 197 186 187 194 198 193 189 195 200 197 193 189 191 198 208 216 220
211 213 218 224 228 229 227 227 227 227 225 224 224 224 225 226 227 228 229 231 230 228 226 222 217 207 195 191 196 201 198 194 195 200 202 198 193 191 192 200 210 217
221 216 216 220 226 229 228 226 225 227 231 233 232 233 233 233 235 237 239 241 242 242 240 236 229 220 209 201 201 203 204 203 201 203 206 205 202 200 197 198 204 211
229 225 222 221 223 226 227 225 221 218 221 227 232 236 239 241 242 243 245 248 249 249 249 247 242 234 224 213 208 210 210 209 210 210 212 212 212 211 209 206 206 208
223 224 227 226 226 227 228 228 225 219 214 214 215 221 227 235 240 243 245 248 249 248 246 243 240 236 230 222 216 216 217 215 214 215 216 218 219 220 220 217 215 214
218 219 225 228 229 229 228 228 228 224 220 216 213 212 214 219 227 236 242 245 245 244 240 236 233 230 227 223 219 219 220 220 218 216 218 222 223 225 227 227 225 223
219 220 222 223 227 230 230 230 230 227 223 220 217 215 214 213 214 221 232 240 243 243 241 237 234 232 229 225 222 221 222 224 223 220 219 221 223 225 227 229 230 229
220 221 222 222 225 230 231 232 234 233 228 223 219 218 218 217 214 212 217 226 233 237 240 240 238 236 235 233 229 228 227 227 226 225 224 223 223 225 227 228 229 229
219 221 223 224 224 227 230 230 233 236 233 227 221 220 220 222 222 219 218 221 225 228 232 236 238 238 236 236 235 234 234 233 231 228 227 227 227 228 230 231 232 232
220 221 223 224 224 225 226 227 228 230 230 228 225 222 221 222 225 226 226 226 228 228 228 229 232 234 234 234 236 236 236 237 237 235 232 230 231 232 233 234 236 237
224 224 223 223 224 225 226 227 227 226 225 225 225 223 220 219 222 225 228 228 229 230 231 229 228 229 229 229 231 232 233 234 236 238 238 237 236 236 237 237 238 239
226 225 225 225 225 225 226 229 231 229 227 226 225 222 220 219 220 223 226 227 227 229 232 231 231 231 231 231 230 229 230 231 232 235 237 239 241 241 243 243 243 243
224 223 225 228 228 228 228 230 232 231 229 228 225 221 219 220 222 225 227 228 228 231 233 232 231 232 235 237 237 235 232 231 232 234 236 238 240 241 243 245 247 248
224 223 226 228 230 232 230 228 228 229 230 229 226 222 219 219 223 229 234 234 232 233 236 237 237 237 238 240 241 242 240 236 234 235 236 238 241 242 243 244 246 247
236 230 229 230 231 233 233 229 228 230 232 232 231 227 224 222 223 229 238 240 238 235 235 237 240 244 247 247 246 245 244 242 240 238 237 238 240 243 245 247 249 250
249 244 242 239 235 235 235 236 236 236 234 233 232 230 229 227 227 229 234 237 237 235 233 235 240 244 247 250 251 251 250 248 246 243 241 240 241 243 246 249 251 253
254 254 255 252 247 244 240 236 236 237 237 236 235 234 232 230 228 229 232 234 235 235 235 239 243 244 244 245 249 252 254 254 253 250 248 246 246 247 248 249 251 253
257 257 258 254 251 252 250 242 237 235 236 238 238 237 235 233 230 230 232 234 235 237 238 241 244 247 247 247 248 249 251 253 255 255 254 252 250 249 250 250 251 253
256 256 258 258 255 254 255 254 251 247 244 242 240 240 239 238 235 233 235 236 237 238 240 243 247 250 252 252 252 252 251 251 253 255 255 255 254 252 252 252 252 252
Height
5955 5956 5956 5957 5958 5959 5960 5961 5962 5963 5964 5965 5966 5966 5967 5968 5969 5969 5970 5970 5971 5971 5971 5971 5971 5972 5972 5972 5973 5973 5973 5973 5974 5974 5975 5975 5975 5975 5975 5975 5975 5975
5954 5955 5956 5957 5958 5959 5960 5961 5962 5962 5963 5964 5965 5966 5967 5967 5968 5969 5969 5970 5970 5970 5971 5971 5971 5972 5972 5972 5972 5972 5972 5973 5973 5973 5974 5974 5974 5975 5975 5975 5975 5975
5954 5955 5956 5957 5957 5958 5959 5960 5961 5962 5963 5964 5964 5965 5966 5967 5967 5968 5969 5969 5969 5970 5970 5971 5971 5971 5971 5971 5971 5971 5971 5972 5972 5973 5973 5973 5973 5974 5974 5974 5974 5974
5952 5953 5955 5956 5957 5958 5958 5960 5961 5961 5962 5963 5964 5964 5965 5966 5967 5967 5968 5968 5969 5969 5969 5970 5970 5970 5970 5970 5970 5970 5970 5971 5971 5972 5972 5972 5973 5973 5973 5973 5973 5973
5951 5952 5953 5954 5956 5957 5957 5958 5959 5961 5962 5962 5963 5963 5964 5965 5966 5966 5967 5967 5967 5968 5968 5969 5969 5969 5969 5969 5969 5969 5969 5970 5970 5971 5971 5971 5972 5972 5972 5972 5972 5973
5949 5950 5952 5953 5954 5955 5956 5957 5958 5959 5961 5962 5962 5963 5963 5964 5965 5965 5966 5966 5966 5967 5967 5968 5968 5968 5968 5968 5968 5968 5969 5969 5970 5970 5970 5971 5971 5971 5971 5972 5972 5972
5947 5948 5950 5952 5954 5955 5956 5957 5957 5958 5959 5960 5961 5962 5963 5963 5964 5965 5965 5965 5965 5966 5966 5966 5967 5967 5967 5967 5968 5968 5968 5969 5969 5970 5970 5970 5970 5970 5970 5970 5971 5971
5943 5946 5948 5950 5952 5954 5955 5956 5956 5957 5958 5959 5960 5961 5962 5962 5963 5964 5964 5964 5965 5965 5965 5966 5966 5966 5967 5967 5967 5967 5967 5968 5968 5969 5969 5970 5970 5970 5970 5969 5970 5970
5941 5943 5946 5949 5951 5952 5954 5954 5955 5956 5957 5958 5959 5960 5961 5962 5962 5963 5964 5964 5964 5965 5965 5965 5966 5966 5966 5966 5966 5966 5966 5967 5967 5967 5968 5968 5969 5969 5969 5969 5969 5969
5942 5943 5945 5947 5948 5950 5951 5952 5953 5954 5956 5957 5958 5959 5960 5961 5962 5963 5963 5964 5964 5965 5965 5966 5966 5966 5966 5966 5966 5966 5966 5966 5966 5966 5967 5967 5968 5968 5968 5968 5968 5968
5942 5943 5943 5944 5945 5947 5949 5950 5951 5952 5954 5955 5957 5958 5959 5960 5961 5962 5962 5963 5964 5964 5965 5965 5966 5966 5966 5966 5966 5966 5966 5966 5966 5966 5966 5966 5967 5967 5967 5967 5967 5967
5937 5939 5940 5941 5943 5944 5946 5948 5949 5950 5951 5952 5954 5955 5957 5958 5959 5960 5961 5961 5962 5963 5963 5964 5964 5964 5964 5965 5965 5965 5965 5965 5965 5966 5966 5966 5966 5966 5966 5966 5967 5967
5933 5935 5937 5939 5941 5942 5943 5945 5947 5948 5949 5950 5951 5952 5953 5954 5956 5957 5958 5959 5960 5960 5960 5961 5961 5961 5962 5962 5963 5963 5963 5964 5964 5965 5965 5965 5965 5965 5965 5965 5966 5966
5931 5932 5934 5936 5938 5940 5942 5943 5945 5946 5947 5948 5949 5949 5950 5951 5952 5954 5955 5957 5958 5958 5959 5959 5959 5959 5960 5960 5961 5961 5961 5962 5962 5963 5964 5964 5964 5964 5964 5964 5964 5964
5929 5929 5929 5932 5935 5938 5940 5942 5944 5945 5946 5947 5947 5947 5947 5948 5949 5950 5951 5953 5955 5956 5957 5957 5958 5958 5959 5959 5959 5960 5960 5960 5961 5961 5961 5962 5962 5962 5962 5962 5962 5962
5926 5926 5926 5928 5931 5934 5937 5939 5941 5942 5944 5945 5945 5945 5945 5946 5947 5948 5949 5950 5951 5953 5955 5955 5956 5957 5957 5958 5958 5959 5959 5959 5959 5959 5959 5960 5960 5960 5960 5960 5960 5960
5923 5924 5925 5927 5928 5930 5932 5934 5936 5937 5940 5941 5942 5943 5944 5945 5946 5947 5947 5948 5949 5951 5952 5952 5953 5954 5955 5956 5956 5957 5957 5957 5957 5957 5957 5958 5958 5958 5958 5958 5959 5959
5920 5922 5923 5925 5926 5927 5929 5930 5931 5933 5935 5937 5938 5939 5941 5943 5944 5945 5945 5946 5947 5948 5949 5949 5950 5950 5951 5952 5953 5954 5954 5955 5955 5955 5955 5956 5956 5956 5956 5956 5957 5957
5917 5919 5920 5921 5923 5925 5926 5927 5928 5930 5933 5935 5935 5936 5937 5939 5941 5942 5943 5944 5944 5946 5947 5947 5947 5947 5948 5949 5949 5950 5951 5952 5952 5953 5953 5953 5953 5954 5954 5955 5955 5955
5914 5916 5917 5919 5920 5922 5924 5925 5926 5928 5931 5933 5933 5933 5934 5936 5938 5939 5941 5941 5942 5942 5943 5944 5944 5945 5945 5946 5947 5947 5948 5950 5950 5950 5951 5951 5951 5951 5951 5952 5952 5953
5912 5913 5915 5916 5917 5919 5920 5922 5923 5925 5927 5929 5930 5930 5931 5932 5934 5936 5937 5939 5940 5940 5940 5940 5941 5942 5942 5943 5944 5944 5946 5947 5948 5948 5949 5949 5949 5949 5949 5949 5949 5949
5910 5911 5912 5913 5914 5915 5916 5918 5920 5922 5923 5925 5926 5928 5928 5929 5930 5932 5934 5935 5937 5937 5938 5937 5938 5938 5939 5939 5940 5941 5943 5944 5945 5946 5946 5947 5947 5947 5947 5947 5947 5948
5907 5908 5910 5911 5911 5912 5913 5915 5917 5919 5920 5921 5923 5924 5926 5927 5927 5928 5930 5931 5933 5934 5934 5934 5934 5935 5935 5936 5937 5938 5940 5941 5942 5943 5944 5944 5945 5945 5945 5945 5945 5946
5904 5905 5907 5908 5909 5910 5910 5912 5913 5915 5916 5918 5919 5921 5922 5924 5925 5925 5926 5927 5929 5930 5931 5931 5930 5930 5932 5933 5934 5935 5937 5937 5938 5940 5941 5942 5943 5943 5942 5942 5942 5942
5902 5903 5903 5904 5906 5907 5908 5909 5910 5912 5913 5915 5916 5918 5919 5920 5921 5922 5923 5924 5925 5925 5926 5927 5926 5927 5928 5930 5932 5933 5934 5934 5935 5936 5938 5939 5939 5940 5940 5940 5940 5939
5899 5900 5900 5901 5902 5904 5906 5907 5908 5909 5911 5912 5913 5914 5916 5917 5918 5919 5919 5920 5921 5922 5923 5924 5925 5925 5926 5927 5929 5930 5930 5931 5932 5933 5934 5934 5935 5936 5936 5936 5936 5935